Regional Weather Roundup
Issued by NWS

Home | Current Version | Previous Version | Text Only | Print | Product List | Glossary On
Versions: 1 2 3 4 5 6 7 8 9 10 11 12 13 14 15 16 17 18 19 20 21 22 23 24 25 26 27
000
ASUS45 KSLC 301810
RWRUT

UTAH REGIONAL WEATHER ROUNDUP
NATIONAL WEATHER SERVICE SALT LAKE CITY UT
1200 PM MDT MON MAY 30 2016

UTZ001>011-023>025-301900-

NORTHERN UTAH

CITY           SKY/WX    TMP DP  RH WIND       PRES   REMARKS
BRIGHAM CITY     N/A     69  41  36 SW5       30.12S
HILL AFB       SUNNY     68  42  38 VRB3      30.13S
LOGAN          SUNNY     68  44  42 CALM      30.11F
OGDEN          SUNNY     69  42  37 NW5       30.11S
PROVO AIRPORT    N/A     68  43  40 SW7       30.12S
SALT LAKE CITY MOSUNNY   74  39  28 CALM      30.09F
VERNAL         SUNNY     69  42  37 VRB6      30.11F
WENDOVER       SUNNY     70  45  40 E7        30.13S
HEBER CITY     SUNNY     68  37  32 N3        30.12F
WEST JORDAN    SUNNY     70  43  37 N6        30.12S

$$

UTZ012>022-026-027-301900-

SOUTHERN/CENTRAL UTAH

CITY           SKY/WX    TMP DP  RH WIND       PRES   REMARKS
BLANDING       SUNNY     72  27  18 S6        30.18S
BRYCE CANYON   MOSUNNY   69  30  23 NE16      30.20F
CEDAR CITY     SUNNY     75  34  22 N12       30.10F
DELTA          SUNNY     72  36  26 N3        30.10F
HANKSVILLE     MOSUNNY   79  32  18 CALM      30.04F
MILFORD        SUNNY     75  37  25 N15       30.09F
MOAB/CYNLANDS  SUNNY     78  34  20 VRB5      30.01F
PRICE          SUNNY     74  23  15 NW16G25   30.10F
ST GEORGE      CLEAR     82  32  16 W3        29.98F
KANAB          MOSUNNY   77  32  19 W6        30.08F

$$

REGIONAL REPORTS     COLORADO/ARIZONA

CITY           SKY/WX    TMP DP  RH WIND       PRES   REMARKS
CRAIG, CO      SUNNY     66  41  40 VRB5      30.14F
GRAND JUNCTION SUNNY     72  38  29 MISG      30.05F
RIFLE          SUNNY     71  36  27 NE3       30.07F
MONTROSE       CLOUDY    72  31  22 VRB3      30.08F
CORTEZ         SUNNY     76  20  12 SW14G21   30.11F
PAGE, AZ       SUNNY     81  28  14 MISG      30.00F
GRAND CANYON   MOSUNNY   71  21  15 VRB6G17   30.15F
KINGMAN        MOSUNNY   84  13   7 CALM      30.00F
FLAGSTAFF      MOSUNNY   64  22  20 VRB3      30.18F

$$

REGIONAL REPORTS    NEVADA/IDAHO/WYOMING

CITY           SKY/WX    TMP DP  RH WIND       PRES   REMARKS
LAS VEGAS, NV  MOSUNNY   86  29  12 E6        29.90F
ELY            SUNNY     71  33  24 N9        30.17F
ELKO           SUNNY     69  37  30 CALM      30.16F
POCATELLO, ID  MOSUNNY   68  38  33 SW21G29   30.12F
BURLEY         SUNNY     66  39  37 W17G29    30.13S
EVANSTON, WY   LGT RAIN  61  40  45 NW8       30.20S
ROCK SPRINGS   MOSUNNY   62  35  36 W10G20    30.15F
KEMMERER         N/A     59  37  44 W18       30.20S

$$




USA.gov is the U.S. government's official web portal to all federal, state and local government web resources and services.